Terminal Aerodrome Forecast
Issued by NWS

Home | Current Version | Previous Version | Graphics & Text | Print | Product List | Glossary On
Versions: 1 2 3 4 5 6 7 8 9 10 11 12 13 14 15 16 17 18
000
FTUS43 KOAX 190343 AAA
TAFCDR
TAF AMD
KCDR 190343Z 1904/1924 18017KT P6SM SCT200
     FM191600 23020G31KT P6SM BKN100=

USA.gov is the U.S. government's official web portal to all federal, state and local government web resources and services.